www.pogodaiklimat.ru

Погода и климат >> Архив погоды >> Иран >> Горган


ПОГОДА в Горгане

  • Прогноз погоды в Горгане
  • Монитор погоды в Горгане

АРХИВ ПОГОДЫ в Горгане

Время (UTC), дата Ветер
(напр.,м/с)
 
Видим.   Явления Облачность Т
(С)
Тd
(С)
f
(%)
Тe
(С)
Тes
(С)
Комфортность P
(гПа)
Po
(гПа)
Тmin
(С)
Tmax
(С)
R
(мм)
R24
(мм)
S
(см)
18 16.09 штиль 0 10 км ясно +20.0 +16.3 79 +22 +22 комфорт 1012.8 1012.6
21 16.09 ЮЗ 4 10 км ясно +19.4 +17.0 86 +21 +21 комфорт 1011.6 1011.4
00 17.09 Ю 5 10 км ясно +21.5 +16.9 75 +25 +25 комфорт 1012.0 1011.8
03 17.09 ЮЗ 3 10 км 5/0
[Ac trans]
+20.6 +14.8 69 +24 +24 комфорт 1013.4 1013.2 +18.4 666
06 17.09 ЮЗ 4 10 км ясно +27.2 +17.2 54 +31 +38 душно 1014.1 1013.9
09 17.09 ЮЗ 2 10 км ясно +30.9 +15.2 39 +33 +47 душно 1011.8 1011.6
12 17.09 штиль 0 10 км ясно +32.4 +17.2 40 +36 +43 очень
душно
1009.7 1009.5
15 17.09 ЮЗ 4 6000 м дым ясно +25.8 +20.6 73 +32 +32 очень
душно
1008.9 1008.7 +33.5 666
18 17.09 ЮЗ 2 10 км ясно +21.8 +19.9 89 +27 +27 душно 1008.9 1008.7
21 17.09 Ю 4 10 км ясно +21.7 +20.0 90 +27 +27 душно 1010.1 1009.9
00 18.09 штиль 0 10 км ясно +20.1 +18.8 92 +23 +23 комфорт 1010.3 1010.1
03 18.09 ЮЗ 6 10 км 6/1 900 м
[Sc Ac und]
+23.2 +21.2 89 +31 +31 очень
душно
1016.0 1015.8 +19.4 666
06 18.09 ЮЗ 4 10 км 10/3 900 м
[Cu hum As op]
+25.9 +20.1 70 +32 +33 очень
душно
1018.3 1018.1
09 18.09 ЮЗ 4 10 км 9/3 900 м
[Cu hum Ac As]
+27.2 +19.2 62 +33 +35 очень
душно
1018.2 1018.0 666
12 18.09 З 2 10 км 9/3 900 м
[Sc diur, vesp Ac As]
+28.2 +19.8 60 +34 +36 очень
душно
1017.8 1017.6
15 18.09 ЮЗ 3 5000 м дым 6/3 1050 м
[Sc diur, vesp Ac As]
+23.9 +19.7 77 +29 +29 душно 1018.3 1018.1 +28.9 666
18 18.09 штиль 0 10 км 3/0 2000 м
[Ac trans]
+21.9 +19.6 87 +27 +27 душно 1017.9 1017.7
21 18.09 штиль 0 10 км 5/0
[Ac trans]
+20.4 +19.1 92 +24 +24 комфорт 1016.8 1016.6
00 19.09 штиль 0 10 км ясно +19.3 +18.3 94 +21 +21 комфорт 1015.3 1015.1
03 19.09 штиль 0 4000 м дымка ясно +18.8 +18.1 96 +20 +21 1015.8 1015.6 +18.1 666
06 19.09 СВ 2 6000 м мгла ясно +26.9 +20.1 66 +33 +42 очень
душно
1016.2 1016.0
09 19.09 штиль 0 7000 м мгла 3/3 1050 м
[Cu hum]
+31.7 +20.1 50 +38 +51 опасность
солнечного
удара
1014.9 1014.7
12 19.09 З 5 8000 м мгла 5/5 1050 м
[Cu hum Ac und]
+30.6 +20.8 56 +38 +39 очень
душно
1015.1 1014.9
15 19.09 З 3 7000 м мгла 4/1 1050 м
[Sc diur, vesp Ac und]
+25.8 +20.6 73 +32 +32 очень
душно
1016.8 1016.6 +32.8 666
18 19.09 ЮЗ 2 10 км ясно +23.2 +20.7 86 +31 +31 очень
душно
1018.8 1018.6
21 19.09 Ю 2 10 км 4/1 1050 м
[Sc Ac und]
+23.4 +21.5 89 +32 +32 очень
душно
1018.4 1018.2
00 20.09 штиль 0 10 км 1/0
[Ac trans]
+21.3 +20.1 93 +26 +26 душно 1017.9 1017.7
03 20.09 штиль 0 4000 м дымка ясно +20.6 +19.9 96 +25 +25 комфорт 1018.3 1018.1 +19.4
06 20.09 штиль 0 6000 м мгла 8/4 750 м
[Cu hum Ac As]
+26.4 +22.3 78 +34 +38 очень
душно
1018.3 1018.1
09 20.09 С 2 7000 м мгла 4/4 750 м
[Cu hum]
+28.8 +21.5 65 +37 +45 очень
душно
1014.9 1014.7
12 20.09 В 5 7000 м мгла 1/1 900 м
[Cu hum]
+31.3 +20.2 52 +38 +40 очень
душно
1012.7 1012.5
15 20.09 ЮЗ 3 5000 м мгла ясно +26.1 +20.9 73 +33 +33 очень
душно
1012.0 1011.8 +31.7 666
18 20.09 ЮЗ 2 5000 м дымка ясно +22.8 +20.4 86 +30 +30 очень
душно
1011.7 1011.5
21 20.09 штиль 0 10 км ясно +20.1 +19.6 93 +25 +25 комфорт 1009.9 1090.5
00 21.09 штиль 0 6000 м дымка ясно +18.6 +17.6 94 +20 +20 1008.5 1008.3
03 21.09 штиль 0 4000 м дымка ясно +18.9 +18.3 96 +20 +21 1007.9 1007.7 +17.9 666
06 21.09 штиль 0 7000 м мгла ясно +27.9 +19.5 60 +34 +46 очень
душно
1007.3 1007.1
09 21.09 СЗ 2 7000 м мгла ясно +32.7 +20.3 48 +39 +53 опасность
солнечного
удара
1005.5 1005.3 666
12 21.09 ЮЗ 4 8000 м мгла ясно +35.8 +20.1 40 +42 +45 опасность
перегрева
1005.0 1004.8
15 21.09 ЮЗ 4 3500 м мгла ясно +26.5 +22.1 77 +34 +34 очень
душно
1006.8 1006.6 +35.9 666
18 21.09 ЮЗ 4 3000 м дымка 9/5 600 м
[Frnb Ac As]
+24.8 +22.1 85 +32 +32 очень
душно
1010.7 1015.0
21 21.09 ЮЗ 2 4000 м слаб. дождь {морось} 10/6 600 м
[Frnb As op]
+23.2 +22.4 95 +32 +32 очень
душно
1012.7 1012.5
00 22.09 штиль 0 4000 м слаб. дождь {морось} 10/6 600 м
[Frnb As op]
+20.5 +19.7 95 +24 +24 комфорт 1014.5 1014.3 4
03 22.09 Ю 2 6000 м дымка {дождь} 10/6 600 м
[Frnb As op]
+19.9 +19.2 96 +24 +24 комфорт 1016.3 1016.1 +19.6
06 22.09 СЗ 4 4000 м слаб. морось {дождь} 10/6 360 м
[St As op]
+18.6 +17.1 91 +19 +20 1019.7 1019.5 0.0
09 22.09 ЮЗ 5 4000 м слаб. морось 10/8 360 м
[St As op]
+19.0 +18.0 94 +20 +21 1021.7 1021.5
12 22.09 ЮЗ 3 7000 м дымка 10/6 900 м
[Sc As op]
+20.1 +17.6 86 +23 +24 комфорт 1022.6 1022.4 0.4
15 22.09 ЮЗ 5 7000 м дымка 10/9 300 м
[Sc As op]
+18.7 +17.5 93 +20 +20 1023.2 1023.0 +21.5 666
18 22.09 штиль 0 7000 м дымка 10/5 750 м
[St As op]
+19.1 +17.6 91 +21 +21 комфорт 1022.9 1022.7
21 22.09 штиль 0 8000 м дымка 8/4 750 м
[St Ac As]
+18.4 +17.4 94 +19 +19 1021.7 1021.5
00 23.09 штиль 0 10 км 9/4 750 м
[St Ac As]
+19.1 +18.4 96 +21 +21 комфорт 1020.8 1020.6
03 23.09 штиль 0 8000 м дымка 9/4 900 м
[Sc Ac As]
+19.1 +18.4 96 +21 +21 комфорт 1020.6 1020.4 +18.4
06 23.09 Ю 2 7000 м мгла 6/1 900 м
[Cu hum Ac As]
+23.1 +15.8 63 +27 +32 душно 1020.7 1020.5
09 23.09 штиль 0 7000 м мгла 8/5 900 м
[Cu hum Ac As]
+24.1 +15.9 60 +27 +32 жарко 1017.8 1017.6
12 23.09 ЮЗ 4 10 км 10/5 900 м
[Sc As op]
+24.1 +16.6 63 +28 +28 душно 1016.2 1016.0
15 23.09 ЮЗ 2 10 км 5/3 900 м
[Sc Ac As]
+20.8 +17.2 80 +25 +25 комфорт 1016.6 1016.4 +26.1 666

 

Местоположение метеостанции Горган (Иран): широта 36.85 долгота 54.27 высота над уровнем моря 13 м.

В архиве по умолчанию представлена погода в Горгане за последнюю неделю. Архивные данные за месяц целиком и за предыдущие месяцы, начиная с января 2011 года, Вы можете получить, выбрав интересующий диапазон дат из раскрывающегося списка и нажав кнопку "Ввод!".


*Определитесь, кто Вы:
робот инопланетянин человек

Внимание! Время в таблицах - всемирное. Для получения местного времени необходимо прибавить поправку, которая равна 3.5 ч.

Смотрите также архив погоды в соседних городах и на ближайших метеорологических станциях:

Погода в Эсенгулы (Балканский велаят, Туркменистан) (74 км)
Погода в Шахруде (Иран) (77 км)
Погода в Гызылетреке (Балканский велаят, Туркменистан) (97 км)
Погода в Эскандар Кола (Иран) (137 км)
Погода в Бабольсере (Иран) (145 км)
Погода в Семнане (Иран) (165 км)
Погода в Мараве Таппе (Иран) (189 км)
Погода в Ноушехре (Иран) (248 км)
Погода в Гаррыгале (Балканский велаят, Туркменистан) (251 км)
Погода в Огрыде (Балканский велаят, Туркменистан) (270 км)

Пояснения к столбцам:

Ветер - указаны скорость ветра в м/с - средняя за 10 мин, порывы в срок и между сроками (в фигурных скобках) и направление, откуда дует ветер: С - северный, СВ - северо-восточный, В - восточный, ЮВ - юго-восточный, Ю - южный, ЮЗ - юго-западный, З - западный, СЗ - северо-западный.
Видимость - горизонтальная дальность видимости в метрах или километрах. При видимости от 1 до 10 км при отсутствии осадков обычно наблюдается дымка, при ухудшении видимости до 1 км и менее - туман. В сухую погоду видимость может ухудшаться дымом, пылью или мглою.
Явления - указаны атмосферные явления, наблюдавшиеся в срок или в последний час перед сроком; фигурными скобками обозначены явления, наблюдавшиеся между сроками (за 1-3 часа до срока); квадратными скобками обозначены град или гололедные отложения с указанием их диаметра в мм.
Облачность - указаны через наклонную черту общая и нижняя облачность в баллах и высота нижней границы облаков в метрах; квадратными скобками обозначены формы облаков: Ci - перистые, Cs - перисто-слоистые, Cc - перисто-кучевые, Ac - высококучевые, As - высокослоистые, Sc - слоисто-кучевые, Ns - слоисто-дождевые, Cu - кучевые, Cb - кучево-дождевые. Подробнее классификацию облаков см. в Атласе облаков (PDF).
T - Температура воздуха - температура, измеренная на высоте 2 м над землей.
Td - Температура точки росы - температура, при понижении до которой содержащийся в воздухе водяной пар достигнет насыщения.
f - Относительная влажность воздуха - влажноcть воздуха, измеренная на высоте 2 м над землей.
Te - Эффективная температура - температура, которую ощущает одетый по сезону человек в тени. Характеристика душности погоды. При расчете учитывается влияние влажности воздуха и скорости ветра на теплоощущения человека.
Tes - Эффективная температура на солнце - температура, которую ощущает человек, с поправкой на солнечный нагрев. Характеристика знойности погоды. Зависит от высоты солнца над горизонтом, облачности и скорости ветра. Ночью, в пасмурную погоду, а также при ветре 12 м/с и более поправка равна нулю.
P - Атмосферное давление - приведенное к уровню моря атмосферное давление.
Po - Атмосферное давление - измеренное на уровне метеостанции атмосферное давление.
Tmin - Минимальная температура - минимум температуры воздуха на высоте 2 м над землей.
Tmax - Максимальная температура - максимум температуры воздуха на высоте 2 м над землей.
R - Количество осадков - Количество выпавших осадков за период времени, мм. При наведении курсора мыши на число - период времени, за который выпало указанное количество осадков.
R24 - Количество осадков - Количество выпавших осадков за 24 часа, мм.
S - Снежный покров - Высота снежного покрова, см. При наведении курсора мыши на число - состояние снежного покрова и степень покрытия местности в баллах.